Theta_e
315 316 315 313 314 317 319 318 315 314 314 314 314 313 313 312 312 313 313 314 314 312 313 313 313 314 313 314 316 317 317 316 326 337 339 338 339 338 337 338 338 338 337 334 334 334 333 333 333 333 333 332 333 334 336 337 337 337 337 336 336 336 335 335 334 334 334 333 333 332 332 333 333 333 333 334 334 333 333 332 332 331 332 332 332 332
315 315 315 314 315 318 321 323 321 318 317 315 315 314 314 313 312 315 316 316 316 315 315 313 312 313 313 314 316 315 314 317 328 337 339 338 338 336 336 337 337 336 335 333 334 333 332 332 332 332 332 331 333 335 336 337 338 337 337 337 338 337 335 334 334 334 334 334 333 333 333 333 332 332 333 333 333 333 333 332 332 332 332 333 333 332
313 315 315 314 316 318 320 322 321 321 320 318 316 316 316 315 315 318 319 318 317 317 317 314 311 312 314 316 315 316 322 326 330 335 338 337 336 336 336 336 335 336 335 334 333 332 331 331 331 331 331 332 332 335 337 337 337 337 337 338 338 337 336 335 335 335 334 334 333 333 332 332 332 333 333 333 333 333 333 333 333 332 333 333 333 332
314 314 313 313 315 317 319 319 319 321 322 322 320 318 317 317 316 317 320 319 317 319 318 315 313 316 319 317 316 323 332 336 334 334 336 335 336 337 336 334 335 336 335 334 332 331 331 330 330 331 331 332 333 335 336 337 337 337 337 338 337 337 337 336 336 335 334 333 333 332 331 331 332 332 333 333 333 333 333 333 333 333 333 332 331 330
313 312 312 314 316 317 318 318 320 321 321 323 323 319 318 319 318 317 320 320 319 324 326 321 317 320 328 322 317 326 333 336 335 335 335 335 335 335 334 333 333 334 333 332 332 332 331 331 330 331 331 332 333 335 336 336 336 337 337 337 337 337 337 336 336 335 333 332 332 332 331 331 332 332 333 333 332 332 332 332 331 331 331 330 329 329
311 312 314 315 316 316 316 318 319 321 321 321 326 327 323 321 321 321 321 318 318 323 329 326 315 319 336 330 319 327 334 336 335 335 335 335 334 333 334 334 332 332 331 331 332 332 331 331 331 331 332 332 333 335 335 336 336 336 337 337 337 337 337 337 335 333 331 331 332 332 332 331 331 332 332 331 330 330 330 329 328 329 329 329 329 329
311 312 313 315 317 316 315 316 316 321 321 319 329 334 326 321 320 321 320 315 316 319 325 330 321 321 333 329 325 331 336 336 336 336 336 335 334 334 334 333 332 331 331 332 331 331 331 331 331 331 332 333 333 334 335 336 336 336 337 336 336 335 335 334 333 331 331 331 332 332 331 331 330 331 331 330 328 329 328 328 328 328 329 329 328 328
312 313 314 317 318 317 316 314 317 322 319 323 337 332 321 319 319 320 318 315 320 323 327 337 332 323 323 323 329 334 337 337 337 337 336 336 334 335 334 332 331 330 331 333 332 332 332 331 332 332 332 333 333 334 335 335 336 336 336 336 335 333 333 335 334 333 332 331 332 332 330 330 329 329 329 327 327 328 327 328 328 328 328 327 326 326
317 315 315 317 317 317 316 314 319 322 318 328 339 327 319 319 318 320 317 316 323 321 322 334 330 322 327 331 330 334 339 337 337 337 336 336 335 334 334 331 330 329 330 332 332 332 332 331 332 332 332 333 333 334 334 335 335 335 336 335 334 334 334 335 334 333 334 332 331 330 329 329 328 328 327 327 327 326 326 327 327 327 327 326 325 326
318 316 314 315 316 317 317 315 318 320 321 327 327 319 318 317 317 319 315 316 320 316 321 333 328 321 330 336 328 329 339 338 336 337 335 335 335 333 333 331 329 329 329 330 331 332 331 331 331 332 332 333 333 333 333 334 334 334 335 334 335 335 334 334 333 331 331 331 329 329 329 328 328 327 326 326 326 325 325 326 326 325 325 325 325 325
314 314 316 315 315 318 319 318 317 318 322 322 319 315 314 315 318 319 320 320 318 319 329 334 328 321 323 332 333 329 336 338 336 337 336 335 334 332 331 330 330 330 330 330 330 331 331 331 331 332 332 333 332 332 332 333 333 334 334 333 335 335 331 331 333 330 328 329 328 328 328 327 327 327 326 326 325 324 324 324 324 324 324 324 323 323
314 312 316 317 317 317 317 318 317 317 317 316 318 316 315 322 325 323 324 320 315 325 337 334 325 322 323 332 339 335 332 335 336 337 336 336 334 332 331 330 331 331 331 331 331 331 331 331 332 332 332 332 332 332 332 332 332 333 333 333 334 334 331 330 332 330 328 328 327 327 326 326 326 325 325 325 324 324 324 324 323 323 323 321 320 321
320 316 316 316 320 318 315 318 317 316 316 313 317 318 316 321 325 327 329 323 321 328 332 329 322 323 330 333 336 336 335 335 337 336 335 335 334 333 332 331 332 332 332 332 332 332 332 332 332 332 332 331 332 332 332 332 332 332 332 332 332 333 331 332 333 332 329 328 327 326 325 326 325 324 325 325 324 324 324 324 322 322 321 320 319 321
318 320 317 314 317 318 316 318 316 317 318 314 315 318 319 321 322 327 331 326 325 325 324 326 321 323 335 336 333 337 336 335 336 335 334 334 334 334 333 333 333 332 333 332 332 333 332 332 332 331 331 331 331 332 332 332 332 331 332 332 332 333 333 334 334 333 330 328 326 325 326 327 325 325 325 325 324 323 323 323 322 321 320 320 321 322
317 320 323 318 316 318 316 317 317 321 322 318 319 318 319 328 329 326 329 328 325 326 329 329 320 325 338 338 333 335 335 334 335 333 334 334 334 335 334 334 334 333 334 333 333 333 332 332 332 331 331 331 331 332 332 333 332 331 332 332 333 334 335 334 334 333 331 330 327 326 327 326 325 325 325 324 323 323 322 322 321 320 320 320 321 321
313 318 327 320 316 318 315 316 317 316 319 320 320 317 316 327 334 328 328 334 334 329 327 328 327 330 335 334 332 334 334 334 334 333 334 335 334 335 334 334 334 334 334 334 333 334 333 332 332 332 331 331 332 332 332 332 332 332 332 333 333 334 335 334 332 332 331 330 329 327 326 325 325 325 324 323 324 323 322 321 320 320 319 320 320 320
312 321 330 318 315 318 313 317 316 311 322 326 318 317 319 321 328 330 325 329 334 328 323 331 336 333 333 334 333 334 336 335 334 333 334 335 334 333 334 333 334 334 334 333 333 333 332 332 332 332 331 331 331 331 332 332 332 333 333 334 334 334 335 333 331 331 329 329 328 326 325 325 324 324 323 323 323 322 322 321 320 319 318 319 319 319
316 322 331 319 313 319 313 315 318 312 322 326 317 321 326 321 325 335 331 327 329 328 330 337 338 335 337 337 333 334 337 335 333 334 334 334 334 333 333 332 331 332 331 331 331 330 330 330 330 330 331 331 331 331 331 332 332 333 333 334 334 333 334 332 330 329 328 328 328 326 325 325 324 323 323 323 322 322 321 320 319 318 318 318 319 319
319 318 330 325 315 320 319 318 322 320 317 318 319 324 328 327 327 328 330 329 326 327 328 329 330 332 335 335 334 336 337 335 333 333 334 334 333 332 332 331 330 330 330 330 330 329 329 328 328 328 329 330 330 330 331 332 332 332 332 333 333 332 333 333 330 328 327 327 328 327 325 325 324 324 324 323 322 321 319 318 318 318 319 319 318 317
322 317 328 331 318 318 325 325 322 322 320 318 320 321 324 334 336 327 327 331 330 331 328 324 328 333 331 330 333 334 335 334 332 331 331 331 331 331 330 329 329 329 329 329 328 329 328 327 327 327 326 327 328 329 331 331 331 331 332 333 333 332 332 332 330 327 326 327 327 325 324 324 323 323 323 323 322 320 318 318 318 318 319 318 317 316
327 320 325 334 326 320 329 328 318 319 323 322 325 326 324 328 329 324 326 328 331 336 333 327 329 331 329 328 329 332 334 333 330 328 327 327 327 328 328 328 328 327 328 328 327 327 327 326 326 325 324 324 326 328 330 329 328 329 331 331 330 328 327 328 328 326 326 327 326 324 323 323 323 322 323 323 322 319 318 318 318 318 318 316 316 316
329 327 327 333 327 321 326 325 317 317 320 321 326 327 324 324 324 322 324 327 333 339 335 333 334 329 327 329 328 329 331 330 328 328 327 326 326 326 326 327 327 326 327 327 326 326 325 325 325 325 324 324 324 326 326 325 326 327 328 328 325 324 324 326 327 327 327 327 325 325 324 323 323 323 323 322 321 319 319 318 318 318 317 315 315 317
334 333 329 330 326 320 319 317 317 317 317 320 323 322 324 329 332 333 333 329 328 330 331 336 339 331 326 328 328 327 327 327 327 328 327 326 325 325 325 326 326 326 326 326 326 326 325 324 324 324 325 324 324 323 323 324 325 325 324 324 323 323 325 326 327 327 327 327 326 325 325 324 323 322 322 321 321 319 319 318 319 318 316 315 316 318
337 332 326 331 333 328 320 316 318 318 320 325 323 322 325 326 330 338 341 336 330 327 330 335 337 330 326 327 327 326 326 326 326 327 326 325 324 324 324 325 325 326 325 325 325 325 324 324 323 323 324 325 324 323 323 324 324 323 322 322 323 323 325 326 327 326 327 327 326 325 325 324 323 322 322 321 320 319 319 318 319 318 316 316 318 318
332 329 328 331 331 328 321 319 320 319 322 325 323 321 322 325 332 333 331 336 334 327 331 336 333 328 327 327 327 326 326 325 325 326 325 324 324 324 324 324 324 324 324 325 325 325 325 325 324 323 323 324 324 324 324 325 324 322 322 322 323 323 324 327 326 326 327 325 323 323 324 324 323 322 322 322 321 319 319 319 319 318 317 317 319 319
330 332 336 333 328 328 327 325 326 325 325 325 324 324 323 327 334 327 325 338 334 325 331 336 331 328 328 327 326 325 325 325 325 325 324 323 324 323 323 323 322 323 323 323 324 325 325 324 324 324 324 324 324 324 324 325 324 324 323 322 323 323 323 325 326 327 325 323 322 323 324 324 324 323 322 323 322 320 319 319 319 319 318 317 318 319
331 329 333 332 327 327 329 327 325 326 329 326 323 326 328 330 333 333 335 339 333 330 334 330 327 330 330 328 327 325 325 325 325 325 324 323 322 321 321 320 320 320 320 321 322 323 323 323 323 323 323 323 323 324 325 325 324 324 323 323 323 323 323 323 326 326 323 322 324 323 322 323 323 322 322 322 322 322 320 319 319 319 319 318 318 319
337 328 326 328 325 321 323 323 319 321 325 325 323 326 330 331 336 341 338 328 325 333 335 327 327 332 330 328 327 325 324 325 324 323 322 320 318 317 315 316 316 315 315 316 317 318 319 320 321 321 322 323 323 323 323 323 324 324 324 324 324 323 323 323 324 324 322 323 324 322 322 324 323 322 324 323 322 322 321 320 320 319 319 319 318 318
335 328 323 326 326 322 322 323 321 320 320 321 323 327 329 332 336 338 332 324 325 332 332 327 328 330 328 326 324 322 320 319 318 317 315 314 313 312 312 312 312 312 312 312 312 313 313 313 315 316 317 319 320 322 322 322 324 324 323 324 324 324 323 323 323 323 322 322 322 321 322 324 323 323 325 324 322 321 321 320 320 320 320 319 318 318
328 327 323 324 326 323 322 324 323 321 319 319 321 321 323 326 328 327 325 324 327 328 327 326 327 326 324 322 319 318 316 314 313 312 311 311 310 310 310 310 310 310 310 310 310 309 309 310 310 310 311 312 314 318 322 322 323 323 323 323 323 323 323 324 324 323 323 323 323 323 324 324 323 323 323 323 322 320 319 317 317 319 319 317 317 319
326 325 322 324 326 323 322 322 321 320 319 320 320 319 319 320 320 321 322 323 325 326 324 324 324 323 321 317 316 315 313 313 312 310 310 310 309 309 309 308 309 309 309 309 308 308 308 308 309 309 309 309 309 313 319 322 322 322 322 322 322 323 323 324 324 324 324 324 324 325 324 324 324 323 322 321 321 320 320 318 316 318 319 317 318 320
329 325 321 323 326 323 321 321 321 319 319 321 321 318 318 320 319 318 318 319 323 325 323 322 322 321 318 315 314 313 312 312 312 310 310 310 309 309 308 308 308 307 307 307 307 307 307 307 308 308 308 308 308 310 313 319 322 322 321 322 322 322 323 323 324 325 324 324 324 324 325 324 324 323 322 322 322 322 321 320 318 319 320 319 320 320
330 328 324 324 324 320 319 323 324 322 322 323 320 315 314 317 317 317 318 320 321 322 322 322 320 318 316 315 314 313 312 311 311 310 311 310 309 309 308 308 308 307 306 307 307 307 307 307 307 308 308 308 309 308 310 315 319 321 322 322 322 321 322 322 322 323 323 323 323 323 323 323 323 323 323 322 322 322 322 322 321 320 320 320 320 320
323 325 326 325 324 321 318 320 323 324 323 320 316 313 314 317 317 317 319 319 318 317 318 317 315 314 314 314 314 313 312 311 310 309 309 309 308 308 308 308 308 307 307 307 307 307 307 306 306 306 307 308 308 308 308 310 313 316 318 319 319 320 320 321 321 321 321 321 321 321 321 321 321 321 321 321 321 321 322 322 321 321 320 320 320 320
320 322 324 324 324 323 320 321 324 323 320 318 315 311 312 315 316 317 317 316 314 314 314 314 313 312 312 312 312 312 311 310 309 308 307 306 306 307 307 307 307 307 307 307 307 306 306 306 305 304 305 306 307 308 308 308 309 310 311 311 311 312 314 316 318 320 321 320 320 320 320 320 320 320 320 320 320 320 321 321 320 320 319 320 320 320
324 324 324 323 322 321 322 324 324 318 315 317 316 310 310 314 316 317 318 316 314 313 312 312 312 310 309 309 310 309 308 307 306 306 305 304 304 305 305 306 306 306 306 307 306 306 305 304 303 303 303 304 305 306 307 307 307 306 306 306 306 306 307 308 311 314 318 320 320 319 320 320 320 320 320 319 319 319 320 320 320 320 320 321 321 321
326 326 324 322 320 319 320 320 318 316 315 316 314 309 309 311 312 315 317 316 315 314 311 310 309 308 308 308 307 307 307 306 307 306 305 304 304 304 304 304 305 306 306 305 304 303 303 302 302 302 303 303 303 304 305 305 305 304 304 304 304 304 305 305 305 307 311 316 319 320 321 320 320 320 320 320 320 319 319 320 320 320 322 322 321 321
317 320 323 323 318 318 319 317 316 318 317 315 313 311 309 309 309 312 315 315 314 313 311 309 308 307 307 306 306 307 307 307 308 307 305 304 303 303 302 302 302 303 304 303 302 301 301 301 301 301 301 302 302 302 303 303 303 303 303 302 303 303 303 304 304 304 305 307 311 315 318 319 320 320 319 319 320 319 319 320 320 321 322 321 320 320
312 315 322 325 320 318 320 318 317 317 315 313 312 312 311 309 308 312 316 315 311 310 309 308 307 307 307 307 307 307 307 307 306 305 303 302 301 300 300 300 300 300 300 300 300 300 300 300 300 300 301 301 301 301 302 302 302 302 301 301 302 302 302 302 303 303 304 304 305 306 308 311 314 317 318 319 319 319 319 319 320 320 320 319 319 319
314 316 320 322 319 317 317 316 314 314 313 311 311 311 311 310 310 313 316 314 310 309 309 308 308 308 308 308 307 306 306 305 304 303 302 301 301 300 300 300 299 299 299 299 299 299 299 300 300 300 299 299 300 301 301 301 301 301 300 301 300 300 301 301 301 302 303 303 304 304 304 304 306 309 311 313 315 318 319 319 320 320 320 319 320 320
315 316 317 316 315 314 314 313 312 312 311 309 309 309 310 313 314 315 314 312 310 309 308 307 308 308 306 306 306 305 304 304 303 303 302 301 301 301 300 299 299 299 299 300 299 299 299 299 299 298 298 299 299 300 300 301 300 300 300 300 300 300 300 300 301 301 302 302 303 303 302 302 303 303 304 305 307 311 313 315 317 319 320 320 320 320
314 315 315 314 313 313 312 312 312 312 309 307 308 308 309 313 314 312 310 310 310 307 305 305 306 305 304 304 303 303 303 302 301 301 302 301 301 300 299 299 299 298 298 299 299 299 299 299 298 298 298 298 298 298 299 300 300 299 299 299 299 299 300 300 300 300 301 301 301 301 301 301 301 302 303 303 305 306 307 308 311 314 317 318 318 318
311 313 315 313 312 313 312 311 312 312 308 305 308 310 309 310 310 308 308 308 307 305 303 304 303 302 302 302 301 301 301 300 300 300 300 300 300 299 299 298 298 297 298 298 298 298 298 298 297 297 297 297 297 297 298 298 299 299 299 299 299 299 299 299 300 300 300 300 300 300 301 301 301 301 302 302 303 305 305 305 307 309 311 313 314 314
309 313 315 312 310 312 312 310 310 309 305 304 308 310 308 306 306 306 306 306 306 305 304 303 302 301 301 300 300 300 301 301 301 301 300 301 300 298 298 298 298 298 298 298 298 298 298 298 297 297 297 297 297 297 297 297 298 298 298 298 298 299 299 299 299 299 299 299 300 300 300 300 301 301 301 301 301 302 303 304 304 305 305 307 310 311
308 310 311 309 308 309 309 308 306 304 302 303 305 305 304 304 304 303 304 304 305 305 305 304 304 303 302 302 302 301 301 301 301 301 302 304 301 298 297 298 298 299 298 298 298 298 298 298 297 297 297 297 297 297 297 297 297 297 297 297 297 297 298 298 298 298 298 299 299 299 299 299 300 300 300 300 300 300 301 301 301 302 302 302 305 309
307 308 308 308 307 305 306 305 303 303 303 302 302 302 302 303 302 302 303 303 304 305 306 306 307 306 306 306 305 303 302 301 302 302 303 304 300 297 298 299 299 299 299 298 298 298 297 297 297 296 296 296 296 297 296 296 296 296 296 296 296 296 296 296 297 297 297 298 298 298 298 298 298 299 299 300 300 299 300 300 300 300 300 299 301 304
306 308 308 309 307 306 306 305 303 303 303 302 302 302 301 302 302 301 302 302 303 303 304 304 305 305 304 304 304 303 303 304 305 304 304 304 300 296 297 298 298 298 298 297 297 297 296 296 296 296 296 295 296 296 296 296 296 295 295 296 295 296 296 296 296 296 296 297 297 297 297 297 297 298 298 298 299 299 299 300 300 300 300 300 300 301
307 308 307 308 308 307 306 304 303 304 303 302 303 302 302 302 302 302 302 302 302 302 300 300 301 302 302 302 303 303 303 303 303 302 302 301 298 295 295 296 296 296 296 296 296 296 296 296 296 295 295 295 295 295 295 295 295 295 295 295 295 295 295 295 295 295 295 296 296 296 296 296 296 297 297 297 298 298 298 299 299 300 300 300 300 301
308 309 307 307 307 306 304 303 303 303 303 302 303 303 303 303 302 301 301 300 300 301 300 298 298 298 299 300 300 301 302 300 298 298 299 296 294 294 295 295 295 296 296 295 296 296 295 295 295 295 295 295 295 295 295 295 295 295 295 295 295 295 295 295 295 295 295 295 295 295 295 295 295 296 296 296 297 297 298 298 299 300 300 300 300 301
308 308 306 306 306 306 304 303 303 304 304 303 302 302 302 302 300 300 299 299 299 300 298 298 297 296 296 296 296 298 300 299 296 295 295 295 294 294 295 295 294 295 295 295 295 295 295 295 295 295 295 295 295 295 295 294 295 294 294 295 295 295 295 294 294 294 294 294 294 294 295 295 295 295 295 296 296 296 297 297 298 299 299 300 300 301
307 306 307 308 307 306 304 302 302 303 302 300 300 300 300 299 299 299 299 299 300 298 296 297 299 297 296 296 295 295 296 296 295 294 293 293 294 294 294 295 295 295 295 295 295 295 295 295 295 294 295 295 295 295 294 294 295 294 294 295 294 294 294 294 294 294 294 294 294 294 294 294 294 294 295 295 295 296 296 297 298 298 298 299 300 300
Wind_Speed
4 3 5 6 6 6 7 7 8 6 5 6 7 6 6 6 7 8 7 7 5 4 8 11 12 13 14 13 12 8 4 5 9 13 12 12 11 11 15 14 12 10 9 11 15 18 17 18 21 24 27 25 25 28 27 27 29 30 31 31 29 30 30 29 30 28 27 25 23 20 20 20 19 18 18 17 16 15 14 14 13 12 12 12 11 11
3 6 8 7 8 9 9 8 7 6 7 7 7 7 7 6 8 8 8 7 4 4 9 11 12 14 15 13 13 9 5 4 9 17 16 15 14 13 17 16 12 9 8 10 11 12 14 17 21 22 23 24 25 26 26 26 28 28 30 31 30 31 31 31 31 29 27 26 24 21 20 20 19 18 19 19 17 16 15 15 14 13 13 12 11 11
2 6 11 11 10 9 8 8 7 7 7 7 5 5 6 5 6 8 7 5 1 3 9 10 12 13 15 13 9 3 2 1 9 19 18 19 19 16 16 14 12 11 10 10 8 9 13 17 20 19 19 23 25 25 26 26 26 26 28 29 30 32 31 31 31 28 25 24 22 20 20 21 19 18 18 17 16 15 14 14 13 13 13 11 11 10
3 7 12 12 8 7 8 7 5 5 5 5 5 5 5 4 2 5 6 7 5 4 6 7 9 7 9 7 3 6 6 7 10 16 14 17 20 17 15 14 14 16 13 11 9 9 12 15 16 17 19 22 24 23 24 26 26 26 26 27 29 31 31 30 29 26 23 21 19 18 20 20 19 18 17 15 15 14 14 14 13 12 12 13 12 12
9 12 6 5 7 8 8 8 5 5 5 5 7 7 5 3 4 6 5 7 8 7 2 5 4 1 4 4 3 7 9 12 13 15 13 11 13 13 13 12 13 16 14 12 12 10 10 12 14 15 18 21 22 22 23 27 27 25 26 27 29 30 30 29 27 24 21 20 19 18 18 18 18 18 17 17 16 15 14 14 13 13 14 14 14 13
13 13 3 5 8 8 8 8 7 6 4 6 7 8 7 5 6 7 7 6 6 7 3 5 4 2 4 1 6 6 9 11 9 15 16 12 12 12 12 11 10 11 10 10 12 12 10 12 14 15 18 19 20 21 23 27 27 25 26 27 28 29 30 29 26 24 22 21 21 20 19 19 19 19 19 19 18 16 15 15 15 15 15 14 13 13
9 8 5 8 9 8 8 9 7 7 5 6 6 7 8 5 4 6 7 4 1 5 4 4 5 1 5 4 6 8 10 11 8 13 15 13 12 12 11 11 10 9 9 9 10 10 10 11 14 14 17 20 20 20 22 25 25 24 27 28 28 29 29 28 27 26 26 24 22 22 21 21 22 22 20 19 18 16 15 15 16 16 15 15 14 14
7 7 6 8 7 7 6 7 8 9 6 6 6 6 6 3 4 6 6 3 3 5 5 4 4 4 3 3 6 12 13 10 9 11 12 11 11 11 10 10 10 10 11 11 10 10 9 10 13 15 18 20 20 21 23 24 24 25 28 29 28 29 28 27 27 27 29 28 25 24 23 22 24 23 21 20 17 15 15 16 17 17 18 17 15 14
5 8 9 9 7 6 6 10 10 9 7 7 6 7 5 5 7 6 5 5 3 2 5 6 3 4 2 4 4 12 12 9 9 11 11 10 9 9 9 9 9 8 9 11 11 10 9 11 15 18 20 20 20 23 25 25 25 26 30 30 28 29 28 26 26 27 28 28 27 26 25 23 23 22 21 20 17 17 18 20 20 21 20 18 16 15
4 8 10 8 6 6 9 13 11 9 7 7 6 5 3 3 4 4 5 4 1 1 4 6 1 3 2 5 3 6 8 8 8 7 8 7 7 7 7 8 8 7 8 8 8 9 9 13 17 18 20 20 20 23 24 24 24 26 29 29 29 28 26 24 24 25 27 28 28 28 27 25 23 22 22 21 18 19 21 22 22 21 20 18 17 15
7 7 7 5 6 8 9 9 9 12 9 3 2 2 3 2 1 2 3 2 3 1 6 7 4 5 1 4 0 2 5 10 10 7 7 6 7 7 7 8 9 9 9 9 9 9 9 13 17 18 18 19 19 20 22 21 22 24 27 27 27 26 23 22 22 24 27 28 30 30 28 26 25 25 25 22 21 21 20 20 19 19 18 17 16 13
7 6 5 5 5 5 5 5 3 5 5 3 3 1 2 4 3 2 3 4 4 3 7 6 4 7 1 4 4 4 4 13 13 11 12 10 8 8 7 8 9 9 9 9 9 9 9 11 14 16 16 16 17 17 18 19 19 22 24 24 24 22 19 19 21 22 24 27 29 30 29 28 27 27 27 24 23 22 20 19 19 18 18 16 15 14
6 5 6 5 4 5 5 4 3 4 2 3 2 3 1 3 3 3 3 0 2 4 5 2 4 5 1 5 3 7 3 10 9 7 12 12 10 8 8 9 8 8 9 9 9 8 8 8 10 14 15 14 15 16 17 18 19 20 21 21 20 18 18 19 20 20 23 25 26 28 28 27 27 28 28 26 23 22 21 20 19 18 18 18 17 16
5 6 4 3 4 2 7 4 2 3 1 4 3 4 4 2 1 2 3 1 1 3 4 3 2 2 3 3 3 7 4 6 7 7 9 10 11 11 10 9 8 8 9 8 8 9 8 8 10 13 14 14 15 17 17 17 18 18 17 17 17 16 18 20 20 20 22 24 25 26 26 26 28 29 28 26 24 22 22 21 20 20 20 20 19 17
3 5 3 4 4 2 5 6 6 5 3 3 3 4 5 4 4 3 3 2 2 3 4 5 1 3 2 2 5 6 3 3 7 8 7 7 9 10 9 10 10 8 7 7 8 8 8 9 12 14 15 15 16 17 17 17 18 17 16 15 15 16 18 19 20 20 21 23 23 24 25 27 29 29 27 25 24 24 24 22 21 21 21 20 19 17
4 5 6 6 4 5 6 6 6 5 1 4 2 4 3 5 5 2 2 5 4 0 3 3 1 1 2 1 7 5 6 7 6 7 8 7 6 6 7 8 8 7 6 6 6 6 6 8 12 13 13 13 14 15 17 17 18 18 17 17 17 17 18 19 19 19 20 21 23 25 28 29 29 27 25 25 25 25 23 21 20 20 19 19 19 18
2 6 7 4 1 5 8 6 5 6 3 2 1 2 4 4 7 5 1 0 4 2 3 1 2 1 2 3 7 6 7 7 6 6 8 7 6 5 5 5 6 6 6 4 4 4 4 7 10 11 11 11 13 16 17 19 20 20 19 18 18 18 19 19 18 18 19 20 23 26 28 28 26 25 25 25 25 24 22 20 19 19 19 19 19 18
3 4 7 3 3 5 4 3 1 3 5 3 2 4 2 3 4 5 3 2 4 2 4 2 3 2 2 1 5 5 5 5 5 5 6 7 7 6 4 4 5 4 4 3 4 5 6 7 10 12 11 12 15 17 18 19 20 21 21 20 20 18 18 18 18 18 18 19 21 23 26 27 25 24 24 23 23 23 23 21 21 20 20 20 19 18
3 1 7 4 1 4 3 5 4 6 3 2 4 2 3 2 1 1 3 2 2 3 2 3 1 2 2 2 3 4 2 1 4 4 5 6 6 6 5 5 4 3 4 4 5 6 6 7 10 13 13 14 17 17 17 18 21 22 20 18 16 15 17 18 18 18 18 18 19 21 24 25 24 23 23 22 23 25 24 23 22 22 21 19 18 17
2 2 5 6 3 3 4 5 2 5 7 4 3 3 3 3 3 2 2 3 4 3 2 1 1 0 2 2 3 5 4 3 5 7 7 5 5 5 4 4 4 4 4 4 4 5 5 7 10 13 14 14 17 17 18 20 19 17 15 12 11 11 14 16 16 17 18 18 20 22 24 24 24 24 23 23 25 26 25 24 23 22 21 19 18 18
3 2 3 6 6 3 1 1 3 3 3 4 4 3 2 1 2 3 2 2 4 4 3 3 2 3 3 2 3 4 1 5 7 8 7 7 6 6 4 4 4 4 5 5 5 5 5 6 10 14 16 15 15 17 18 15 11 12 13 12 9 5 4 8 10 13 16 18 22 25 25 26 26 25 24 24 26 26 26 26 24 23 21 18 18 20
1 1 2 2 5 3 1 2 6 11 7 4 3 1 1 1 3 4 2 2 2 4 4 5 3 3 3 2 3 1 5 6 7 10 6 5 7 7 6 5 5 5 5 6 5 4 5 6 9 13 14 14 13 13 12 9 8 10 11 12 14 14 12 12 15 16 19 22 24 26 26 26 26 25 24 25 26 26 27 27 25 23 21 20 21 20
3 4 2 0 2 1 2 2 7 12 11 8 3 1 0 2 4 5 4 3 1 2 2 3 3 1 3 2 4 5 7 6 7 10 8 4 5 6 7 6 6 6 6 6 5 5 6 9 11 12 10 9 9 9 9 11 10 11 18 22 21 21 19 19 20 21 22 21 22 23 23 23 23 23 24 25 25 25 27 27 25 22 21 22 22 19
2 4 2 2 3 2 2 3 5 6 8 7 3 3 3 1 1 4 5 4 3 2 1 3 2 1 2 3 4 7 9 7 6 9 8 3 4 6 6 6 6 6 6 5 5 5 6 10 12 12 12 10 9 9 10 11 11 14 23 25 21 19 20 22 23 24 20 15 16 18 20 21 21 21 22 24 25 25 27 26 24 21 21 23 22 19
1 1 1 2 2 3 1 1 5 6 5 4 1 3 5 5 4 1 1 3 3 2 3 5 2 2 0 3 5 8 10 8 7 9 7 3 3 5 5 6 6 7 6 5 5 5 5 5 6 7 9 10 9 9 9 10 11 13 16 17 17 16 17 20 24 26 20 13 12 15 19 21 21 22 21 21 23 25 25 25 23 21 21 22 21 19
3 2 2 4 3 3 3 3 3 0 2 2 1 4 6 7 7 2 2 4 2 2 3 5 3 3 3 5 7 8 10 8 7 9 7 4 4 5 5 6 7 7 7 6 6 5 4 4 4 4 4 4 7 11 12 12 13 14 13 12 11 11 13 18 23 24 20 15 13 14 17 17 18 21 20 19 22 24 25 25 23 21 22 22 21 19
4 2 2 5 5 4 3 5 5 3 3 2 3 5 6 5 5 4 3 2 2 2 4 2 6 7 7 7 8 8 9 9 8 8 6 5 6 6 6 7 7 7 7 7 7 6 6 5 6 7 7 6 9 14 16 17 17 16 17 17 16 14 15 18 20 19 16 16 16 15 16 16 16 18 18 18 21 23 25 25 24 23 22 21 20 19
5 3 2 5 4 2 4 5 2 3 5 4 5 6 5 5 7 7 3 1 1 4 3 1 6 9 8 8 9 8 8 8 7 7 6 5 6 7 7 9 10 10 10 10 9 9 9 8 7 9 11 11 10 11 13 15 16 15 16 16 14 13 13 14 17 16 13 14 17 16 16 17 19 20 19 18 19 20 23 23 22 22 21 18 17 17
5 2 1 4 4 3 6 8 5 3 5 4 5 7 6 5 7 6 2 2 1 4 3 4 7 7 8 9 9 8 8 8 8 8 7 6 6 8 10 12 12 12 12 12 11 10 11 11 10 12 15 14 12 10 10 11 12 13 14 13 13 13 12 12 14 15 13 14 16 16 16 17 20 20 19 19 19 19 20 20 19 19 19 17 14 15
4 2 3 3 5 4 7 8 6 3 6 7 7 7 7 7 7 7 4 6 9 8 7 9 10 7 7 8 8 7 8 8 8 9 9 8 7 9 12 12 11 12 11 11 11 10 10 10 12 15 18 18 16 13 8 6 8 11 14 14 14 15 15 14 15 16 16 17 16 15 16 17 20 21 20 20 21 21 19 17 17 19 19 18 16 18
3 2 3 4 5 3 6 5 3 2 8 10 9 9 8 6 6 6 5 8 11 9 9 12 11 7 5 7 8 7 6 8 10 10 8 7 7 10 12 12 11 11 11 10 11 10 9 10 13 16 17 18 18 15 9 4 4 7 9 11 14 15 14 13 14 15 16 16 15 14 15 16 19 20 20 20 21 22 20 18 19 20 20 20 20 22
2 2 2 4 4 1 3 4 3 2 7 10 10 12 11 6 3 4 2 2 5 10 12 10 6 4 4 7 9 7 7 11 11 9 7 6 7 10 12 11 11 10 10 9 10 10 10 10 11 14 16 18 19 19 14 8 6 7 7 8 11 13 13 12 12 12 12 12 12 12 12 13 16 18 20 20 19 20 20 19 21 23 21 20 19 20
2 4 3 2 3 2 2 2 3 3 4 5 7 9 8 4 2 5 4 4 3 6 9 7 4 4 6 8 9 7 7 10 9 7 7 6 7 10 11 11 10 8 8 8 9 10 10 10 11 14 17 19 20 20 19 17 15 13 10 9 9 10 11 11 10 11 11 11 10 10 11 12 14 16 17 18 18 19 20 20 22 24 24 21 18 16
2 5 4 3 3 0 2 1 5 4 3 2 4 6 4 2 4 7 7 6 5 6 7 7 7 6 6 8 9 7 6 7 7 6 6 4 5 9 10 10 9 8 8 8 8 9 10 12 15 17 20 21 21 21 23 24 23 22 20 18 16 13 11 8 7 7 8 9 8 9 9 10 12 13 13 15 17 18 19 19 21 23 24 23 20 17
4 5 3 2 3 2 1 3 4 1 1 1 4 7 4 3 7 11 10 8 8 12 12 10 8 8 9 8 8 9 8 7 8 8 6 4 4 8 10 9 7 8 9 8 8 10 13 15 17 20 22 22 22 24 26 26 27 28 28 27 26 23 19 15 10 6 5 6 7 7 8 9 10 10 9 10 13 16 17 17 17 18 20 20 20 18
6 4 2 2 3 2 2 3 3 2 1 3 5 7 7 5 6 9 10 8 7 8 12 11 8 8 10 9 8 9 9 9 10 9 8 7 6 8 10 8 7 9 10 10 11 13 15 17 18 21 24 26 26 26 25 25 26 29 29 29 29 28 27 25 21 14 7 5 6 6 5 6 7 7 7 6 7 10 13 15 14 13 14 17 18 19
5 3 3 2 2 3 3 3 3 3 0 3 4 5 4 3 3 1 4 5 7 5 6 11 11 9 10 10 9 9 9 10 10 7 6 7 8 8 9 8 8 10 12 15 17 19 19 19 21 23 26 29 31 28 25 25 27 29 30 29 29 29 28 28 27 24 18 11 5 4 3 2 2 2 4 5 5 6 10 14 14 12 12 13 15 17
6 3 3 3 1 2 4 3 2 2 1 1 1 4 4 3 4 3 2 4 6 7 2 11 12 10 10 10 10 9 8 9 8 4 4 5 6 8 9 10 11 12 13 16 19 21 21 20 21 24 26 28 29 26 24 25 28 30 30 29 30 30 29 28 26 26 26 22 15 9 3 1 2 2 2 3 3 4 7 11 14 15 14 14 12 13
9 4 3 4 2 2 4 3 2 2 1 2 4 5 4 3 4 1 2 3 5 9 1 10 11 9 10 10 7 5 5 8 6 2 3 5 7 9 10 12 15 17 18 19 20 21 20 20 22 25 27 27 26 24 24 25 27 28 28 28 29 30 28 27 25 23 23 24 23 22 17 12 7 4 2 2 3 4 5 8 11 14 15 14 13 13
8 5 4 4 3 2 3 3 2 1 1 3 5 5 4 3 1 2 2 1 5 8 1 9 9 7 7 6 4 3 5 7 6 4 5 8 10 12 13 13 15 17 19 20 21 22 22 23 25 26 26 26 25 24 25 25 26 27 26 27 29 28 26 24 22 21 21 20 20 22 23 23 20 16 11 8 5 3 3 5 8 10 12 12 13 14
5 4 3 4 3 3 3 3 2 0 2 4 5 4 2 2 2 3 3 2 4 4 2 8 8 6 6 5 6 5 5 6 7 5 7 9 10 12 14 17 18 19 20 20 19 20 23 24 25 25 24 24 23 24 24 24 26 26 25 26 27 26 23 22 20 19 20 19 19 20 21 22 22 20 19 16 13 9 6 3 4 7 11 11 10 12
3 3 3 2 2 2 3 3 2 0 2 4 5 4 1 2 1 2 2 0 2 4 8 9 8 8 9 8 8 8 6 7 8 7 7 9 8 9 12 16 18 18 18 19 18 18 20 22 22 23 22 21 21 21 21 22 24 24 24 25 25 23 21 20 20 19 19 19 20 20 20 21 21 20 19 17 16 15 14 13 9 3 6 8 8 9
1 1 2 2 1 2 3 3 2 1 3 6 4 3 3 2 4 4 3 3 4 7 10 10 8 8 9 9 9 9 8 8 8 8 8 8 7 9 12 14 15 15 16 18 18 18 19 20 21 21 21 21 21 21 20 20 21 21 22 23 22 20 19 20 19 18 18 19 19 20 20 20 21 21 19 18 16 15 15 16 15 11 7 3 5 7
2 1 1 1 1 1 3 3 2 0 4 5 2 3 4 4 5 5 5 5 6 7 7 8 8 7 9 9 9 8 8 7 7 8 8 7 7 8 11 12 14 16 16 16 15 15 17 18 18 18 19 19 20 21 21 21 20 20 21 21 20 19 19 20 19 19 19 19 20 20 19 19 19 20 20 19 17 15 14 16 15 13 13 12 7 5
2 2 4 2 2 3 4 3 3 3 4 6 7 6 7 8 7 7 8 6 5 5 5 6 6 7 7 8 8 7 6 6 6 6 6 5 6 8 10 12 13 14 14 13 12 12 13 14 14 16 18 18 18 19 20 20 21 22 22 20 19 19 19 19 19 19 20 20 20 20 20 18 17 18 18 19 18 16 15 16 16 14 14 16 15 10
1 3 4 5 5 7 7 5 5 6 7 8 8 8 9 9 7 7 9 7 5 6 5 5 6 5 6 6 6 5 4 4 5 6 5 5 6 9 11 12 11 11 12 12 12 11 11 14 16 19 21 21 20 19 19 19 20 22 22 20 19 19 19 18 19 19 19 19 19 20 20 19 18 18 17 16 17 16 15 16 17 15 13 15 16 13
2 3 4 4 4 4 4 4 5 8 8 8 8 8 8 8 6 6 7 7 6 7 7 7 7 5 4 5 5 4 4 5 5 5 5 5 6 9 12 12 12 12 12 12 12 12 14 17 19 20 21 22 21 19 19 19 19 19 18 18 18 17 16 17 18 18 18 18 18 18 19 19 20 20 18 17 16 16 15 15 16 16 15 13 13 13
1 2 4 3 3 4 4 4 5 7 6 5 6 6 5 6 6 5 5 5 5 6 6 6 6 5 4 4 5 5 5 5 5 6 6 6 8 11 13 13 13 13 12 13 14 14 15 18 19 19 19 19 18 17 17 17 18 17 16 17 17 16 15 16 16 16 16 17 17 17 18 19 20 20 19 18 17 17 16 15 15 16 15 13 12 14
1 3 3 3 5 6 5 6 6 7 5 4 5 5 5 5 6 7 7 7 7 7 7 7 7 6 6 5 5 6 6 5 6 8 7 6 9 11 12 11 12 13 14 15 16 16 16 17 17 16 16 16 15 15 15 16 17 17 16 16 16 15 15 15 15 15 15 16 16 17 17 18 19 20 20 18 16 16 15 14 14 15 13 10 9 11
3 4 3 5 6 3 4 6 7 6 3 2 2 4 5 6 8 9 8 8 7 7 7 8 10 12 13 11 10 9 6 4 6 9 9 8 9 10 10 12 15 16 16 16 15 15 15 14 13 13 13 13 13 13 15 15 15 15 14 14 14 15 14 14 14 14 14 15 15 16 16 17 17 18 18 17 17 17 16 13 11 12 12 10 6 7
3 4 4 5 5 5 6 6 6 5 4 3 4 5 5 7 9 9 8 7 6 6 8 9 9 10 10 11 13 13 8 6 10 13 10 8 9 10 12 15 17 17 15 14 13 13 13 12 11 10 10 10 11 12 13 13 12 12 12 13 14 14 14 13 14 13 13 13 13 13 14 14 15 15 16 16 15 16 17 16 12 10 11 12 8 6
Wind_Direction
159 195 248 225 225 223 224 225 215 223 228 247 274 266 265 268 270 273 272 266 224 218 248 232 230 238 239 240 239 234 202 150 135 129 123 127 128 121 123 132 141 146 154 163 167 168 166 162 163 165 163 163 163 166 170 168 166 168 168 167 167 172 176 176 176 179 183 184 181 177 174 173 173 173 171 169 168 166 165 163 160 158 158 160 166 174
151 201 239 227 220 221 224 226 217 230 240 246 257 265 276 267 272 274 260 261 205 184 261 236 215 233 236 230 236 224 176 176 146 134 137 135 126 125 133 139 146 145 151 163 167 161 159 163 168 170 162 157 160 165 170 168 167 169 167 165 165 168 172 174 176 180 184 185 182 178 173 171 169 169 168 164 160 157 157 157 155 155 155 157 161 166
227 233 241 230 217 217 232 231 212 223 237 245 246 254 269 265 282 277 261 278 178 180 268 237 198 223 234 230 245 244 140 203 148 144 144 137 132 140 145 143 145 147 154 165 160 153 165 172 173 172 160 154 159 166 170 170 169 168 167 166 165 167 171 174 177 181 184 185 184 178 168 166 164 165 165 158 154 153 155 156 156 156 156 159 161 160
237 247 236 226 208 207 240 244 219 229 243 242 234 237 249 238 267 278 287 315 309 265 248 203 181 216 249 251 336 30 63 75 112 129 129 134 141 147 149 146 150 154 160 165 160 165 175 178 178 172 158 152 157 163 167 169 171 170 169 168 165 167 172 176 179 183 184 183 181 170 159 156 154 154 154 150 151 154 157 159 159 157 155 155 151 146
236 249 220 187 201 205 230 247 231 227 253 249 227 223 222 208 234 253 290 321 324 313 257 133 117 21 285 245 81 48 67 86 102 114 115 132 138 137 142 149 158 160 163 166 167 177 181 180 180 170 156 152 155 160 166 170 172 172 172 170 168 168 172 178 182 184 182 176 171 164 155 151 148 148 151 151 153 158 159 159 157 150 148 148 146 144
244 250 187 176 215 205 215 243 228 197 230 262 238 218 202 203 251 273 307 341 359 328 318 95 87 338 303 256 113 83 80 92 111 123 128 141 138 139 150 155 162 162 167 172 170 177 180 173 167 161 157 154 157 163 168 171 173 173 173 172 172 173 176 180 182 182 178 171 169 170 164 157 152 152 158 158 156 160 159 155 153 150 149 149 149 149
247 244 192 204 220 207 214 242 228 180 196 254 239 208 183 182 263 287 302 332 12 288 294 86 110 199 312 359 98 108 100 107 129 133 138 150 152 158 161 158 162 163 171 176 173 178 176 165 158 158 162 161 163 167 167 170 173 171 172 174 175 177 179 178 178 180 177 172 176 178 172 163 157 155 159 161 160 162 164 162 161 161 160 157 152 149
234 236 221 213 215 211 216 242 224 175 182 243 234 196 177 191 257 272 278 268 226 260 308 11 87 104 325 331 106 109 102 113 138 145 154 162 165 167 158 156 161 161 169 171 176 182 171 161 159 161 168 168 167 167 166 169 172 171 172 175 177 177 178 176 178 183 180 176 178 177 171 165 161 159 159 160 163 164 167 170 171 167 160 153 151 150
222 222 228 214 207 209 214 232 220 174 189 240 229 203 195 209 227 242 259 261 246 254 305 324 29 84 291 292 99 105 107 129 155 164 174 176 174 163 146 146 153 159 172 177 181 179 164 161 163 167 171 171 171 170 169 170 172 172 173 176 177 180 181 178 179 185 184 180 177 173 169 165 164 162 161 162 163 156 150 152 157 156 150 145 145 146
238 224 228 207 195 208 218 228 212 174 202 235 220 215 215 203 212 218 228 236 231 155 254 269 5 99 272 300 42 99 123 152 172 179 183 180 168 152 143 145 148 157 175 189 188 169 159 165 167 170 173 173 174 174 172 171 172 173 174 177 180 184 184 178 177 180 180 179 176 172 170 166 165 165 164 163 159 151 145 143 146 147 147 145 143 144
254 252 245 208 202 207 207 215 195 184 202 200 152 232 281 280 197 189 220 144 105 234 253 242 177 122 259 290 239 171 165 161 166 173 179 176 157 150 154 152 154 163 172 183 178 160 158 165 165 169 174 175 173 172 171 171 174 176 178 179 182 186 185 178 176 175 173 173 173 173 172 169 167 166 165 162 156 153 151 147 145 145 145 144 143 147
278 269 255 227 207 182 178 213 203 183 191 144 112 127 312 316 14 38 342 59 106 241 258 237 157 113 131 257 261 289 205 165 166 171 169 166 157 154 158 157 161 166 169 171 165 159 160 158 160 168 175 175 168 165 168 171 174 177 180 183 186 190 188 180 176 174 173 172 172 173 173 171 170 168 167 165 160 158 156 150 147 145 145 143 142 144
297 258 246 247 224 145 144 222 298 5 65 132 119 95 96 295 351 10 313 42 159 240 261 240 116 101 236 244 298 330 243 171 165 162 159 156 153 155 159 163 166 165 165 165 162 165 166 158 160 167 171 172 166 162 163 170 177 179 181 186 189 191 188 181 177 178 180 178 177 176 174 174 173 171 171 171 167 163 159 154 151 149 149 146 144 143
290 291 284 264 267 145 132 165 259 326 114 152 166 144 160 206 25 303 272 291 215 231 285 329 88 106 287 282 346 341 297 174 147 143 155 156 152 154 159 161 163 164 163 167 167 168 168 161 160 162 166 171 170 163 158 163 174 179 181 186 188 187 186 183 184 186 186 183 181 178 177 178 175 172 173 174 171 165 161 158 156 154 152 149 148 148
227 292 281 209 242 200 154 169 183 180 159 184 189 147 162 166 149 215 226 190 222 239 312 332 46 146 202 293 330 339 356 97 128 139 143 144 147 152 156 156 157 160 162 170 173 169 166 158 155 160 167 173 172 163 154 154 164 172 179 184 185 184 184 187 189 187 185 184 184 182 180 178 174 173 175 174 171 167 163 161 158 156 154 153 153 152
185 242 257 231 212 181 187 197 167 142 166 245 169 106 175 189 154 150 180 173 171 141 335 347 33 188 173 327 339 8 52 64 92 119 123 127 139 142 144 148 148 150 161 171 175 166 150 141 147 157 164 167 165 160 155 156 161 167 175 182 186 188 186 187 188 183 178 180 182 180 177 175 174 175 175 172 171 170 167 166 164 161 159 160 159 158
180 245 275 293 275 201 198 198 164 150 175 253 114 160 215 177 129 121 167 182 87 86 295 25 98 346 51 18 346 17 52 57 73 103 116 121 126 123 123 132 136 148 160 159 151 134 109 113 126 136 144 147 153 161 166 168 168 168 173 181 186 189 188 186 186 180 171 172 176 175 174 174 175 177 175 173 172 172 171 172 170 165 162 162 161 161
164 258 287 306 318 274 216 159 150 170 151 136 183 219 215 66 83 109 128 15 53 147 267 11 125 157 104 15 326 2 50 62 62 92 117 122 124 121 111 112 120 134 135 96 73 68 69 88 99 107 122 140 153 164 171 174 175 173 177 183 185 188 189 187 187 179 168 168 173 175 176 177 178 178 177 176 175 173 172 171 169 165 161 161 161 163
136 277 294 281 280 304 1 63 9 327 341 142 173 161 91 86 283 64 124 132 105 166 262 354 77 149 150 201 308 319 293 55 42 64 92 100 106 108 103 101 94 87 81 66 65 62 63 80 91 101 116 134 149 159 169 178 183 182 181 182 184 189 190 188 188 181 170 165 169 174 177 178 179 179 179 178 176 174 171 167 166 165 162 161 164 165
86 106 284 295 322 343 14 47 41 320 338 14 55 50 74 144 177 165 155 152 139 165 201 30 40 256 240 249 280 273 273 5 25 28 23 21 58 84 101 106 99 87 75 64 73 71 64 81 96 101 104 120 137 151 170 183 186 180 174 172 179 192 194 192 189 177 165 157 160 168 174 178 179 179 181 180 176 174 171 168 167 166 165 165 167 166
33 88 237 294 334 26 33 3 114 90 9 25 53 38 1 16 131 140 167 137 126 146 163 154 198 255 254 286 293 256 181 61 53 48 15 349 20 46 57 76 78 75 67 57 64 63 55 80 103 102 98 107 130 157 176 179 169 162 160 159 157 148 148 154 149 150 155 157 162 168 173 177 178 178 181 180 177 175 171 169 169 167 165 165 164 164
75 103 190 294 353 42 189 224 110 99 85 78 94 101 218 188 127 128 218 290 103 132 159 158 174 266 279 329 347 27 84 80 82 87 71 15 36 52 54 64 70 74 75 73 78 75 60 63 83 97 105 114 132 159 164 141 143 157 141 120 102 85 96 126 132 145 163 167 168 171 173 174 175 177 179 178 176 175 171 169 169 167 165 164 162 164
130 103 98 296 286 169 151 106 97 103 100 88 68 359 78 139 110 125 192 247 68 94 116 113 117 265 302 7 51 59 64 75 96 102 100 77 67 74 71 75 84 92 98 104 106 103 98 93 94 103 118 128 136 144 127 121 139 121 95 97 98 96 116 144 152 158 167 165 161 163 164 164 164 165 169 172 172 172 171 170 169 168 165 162 163 167
75 78 51 308 298 325 85 68 38 57 82 80 28 352 23 42 112 141 175 176 129 127 107 82 95 172 335 5 59 74 62 51 60 82 91 94 83 81 78 77 80 86 95 102 97 88 98 109 114 122 135 145 150 146 130 132 140 112 100 106 109 111 131 151 158 164 167 157 144 140 137 139 145 147 153 162 168 170 171 170 168 168 167 164 165 168
76 98 99 80 344 331 329 330 355 8 53 88 327 335 23 33 29 41 138 97 99 190 140 119 163 217 108 23 47 73 71 57 50 68 76 70 69 75 74 72 71 75 78 82 91 95 94 103 114 125 136 143 140 132 130 134 135 126 121 117 110 117 139 153 161 168 168 149 118 109 112 121 130 136 140 151 163 168 170 171 169 169 169 167 166 167
122 166 129 118 167 199 200 218 236 282 71 87 20 355 25 37 32 36 134 90 109 203 99 109 166 179 116 77 60 70 79 75 68 71 69 60 73 77 72 68 64 62 59 57 73 91 88 76 71 68 87 115 109 109 121 132 126 118 128 145 148 151 161 165 169 170 163 149 132 123 127 130 130 132 136 145 160 169 171 172 172 171 171 169 167 169
103 106 105 125 157 193 219 234 221 151 96 94 71 31 27 39 44 66 89 70 160 136 55 88 155 137 123 111 94 91 93 90 86 82 75 67 75 74 69 70 65 57 55 51 54 65 65 58 52 45 39 46 77 93 106 121 125 119 127 150 168 177 179 176 174 170 159 155 160 157 157 160 155 153 153 150 156 168 174 173 172 171 171 168 165 171
95 57 77 123 136 269 293 293 277 119 116 137 125 80 51 45 53 68 76 298 166 104 57 176 138 126 131 124 111 107 100 91 86 84 79 66 68 74 70 66 64 58 55 54 50 51 55 51 44 45 42 40 51 66 78 95 112 120 125 135 145 157 172 178 179 182 180 173 173 173 174 175 171 171 171 162 157 162 167 169 169 171 170 165 165 177
104 71 8 111 105 5 353 357 0 68 104 108 117 110 95 76 77 87 112 242 135 118 149 147 116 112 121 114 107 105 93 81 72 71 72 62 59 72 71 63 60 57 54 54 51 50 54 52 46 44 42 38 37 40 47 67 89 107 117 126 133 138 149 166 179 188 191 186 181 179 179 177 175 176 176 173 171 169 166 167 171 174 174 168 171 187
98 64 359 55 93 47 9 6 351 13 84 73 56 74 88 97 104 100 100 99 90 92 114 112 96 85 94 101 98 92 89 88 78 66 66 65 60 67 70 65 61 58 57 55 52 50 51 53 53 49 45 39 34 33 39 51 73 95 106 115 126 134 143 154 164 169 171 174 178 179 178 178 181 185 186 185 186 186 183 183 186 186 182 180 187 198
55 62 358 42 82 33 6 25 11 50 96 78 42 28 34 51 74 71 83 98 92 93 101 100 95 82 76 92 94 89 90 89 81 69 63 65 68 72 72 69 65 62 59 56 53 48 45 47 51 50 47 42 39 42 47 40 42 69 89 104 118 131 144 155 157 157 160 164 169 173 174 177 183 190 195 197 197 198 202 206 203 194 186 187 196 205
68 94 18 47 78 27 8 51 43 46 81 65 30 5 355 356 50 54 37 79 110 127 122 105 101 104 96 90 84 82 91 93 91 89 79 67 70 76 76 72 67 62 56 50 47 47 45 43 46 49 48 46 45 47 52 59 62 62 73 94 108 124 142 156 160 161 161 164 172 180 183 186 190 195 200 202 201 201 205 210 206 197 189 187 194 203
115 119 105 71 82 41 1 68 54 16 40 43 7 340 321 283 139 91 60 29 52 122 125 116 118 117 111 103 90 82 87 91 97 99 89 82 79 79 78 74 68 60 52 49 46 47 46 42 43 47 48 48 49 51 59 70 77 77 83 89 90 107 131 146 155 162 165 167 175 187 194 197 200 204 207 208 206 203 204 207 205 200 195 194 196 199
94 118 130 139 120 120 276 99 74 42 48 56 335 317 298 213 127 93 80 59 57 77 88 99 108 99 94 102 103 102 95 90 96 95 86 91 90 82 79 74 71 67 59 51 49 49 48 45 46 47 49 51 52 58 65 72 78 82 86 86 82 84 94 107 126 144 154 162 172 185 194 197 197 200 207 210 209 206 204 207 210 208 205 206 207 204
113 109 120 128 118 149 204 74 74 74 104 49 321 330 1 74 93 88 78 66 88 107 105 103 109 104 99 101 106 109 105 95 91 88 80 74 82 89 87 78 69 70 65 54 50 52 50 50 48 45 45 47 51 58 64 69 75 79 79 77 75 71 69 70 75 91 131 152 162 179 196 201 194 189 193 202 207 207 205 207 211 210 208 210 211 211
135 124 112 98 91 123 119 64 99 167 266 339 335 347 8 27 56 76 70 42 46 103 118 116 118 119 119 122 123 118 113 101 86 77 76 73 74 87 91 87 81 78 75 70 63 58 53 53 55 52 48 48 50 53 57 63 71 74 71 69 67 64 62 63 63 66 85 128 152 163 181 202 203 196 193 196 203 209 210 209 206 201 203 209 212 212
114 114 98 81 73 118 113 74 97 135 6 355 352 341 346 343 330 48 88 46 12 21 113 123 123 129 130 128 128 125 116 100 83 65 63 71 78 88 95 101 101 94 90 87 80 71 61 55 55 56 55 54 53 52 53 58 65 67 64 62 61 58 57 55 54 57 64 76 114 160 173 197 221 212 201 198 197 204 210 209 203 195 199 207 208 205
71 99 128 118 87 103 106 93 98 127 144 136 254 277 281 264 261 266 104 76 8 348 97 132 129 135 137 131 136 141 117 91 82 70 63 69 76 83 85 85 84 81 82 85 82 76 67 60 57 57 57 56 55 53 54 57 62 63 59 55 55 53 50 47 44 48 54 57 62 71 82 213 276 296 256 211 199 200 204 205 204 204 208 212 213 214
45 53 92 97 87 88 100 107 119 131 168 230 249 262 273 260 243 253 84 86 353 331 276 139 132 140 144 138 147 156 109 89 93 103 105 94 82 79 79 75 71 68 68 71 73 72 68 64 62 58 54 52 50 50 54 57 59 58 53 49 50 47 42 38 36 40 45 49 52 55 56 57 51 29 338 285 263 246 225 212 210 213 219 223 225 228
30 28 41 56 67 93 99 100 94 93 223 262 272 276 288 292 218 138 136 157 326 320 253 140 137 147 144 130 118 97 92 113 131 143 126 106 86 79 80 77 71 67 64 64 66 68 66 62 59 54 49 46 45 48 53 55 54 51 46 45 45 41 34 31 30 35 39 41 44 47 47 49 52 51 45 31 3 322 271 244 229 222 224 229 234 236
16 20 40 54 52 62 87 99 92 289 264 280 294 291 297 4 58 115 155 212 304 326 88 124 129 125 107 95 93 82 79 108 124 124 111 99 89 83 82 79 76 70 65 63 62 63 63 59 55 52 47 42 41 44 49 53 52 47 43 42 39 33 29 28 28 31 34 35 37 37 35 36 39 41 41 38 35 38 33 354 281 239 229 228 229 234
13 10 24 42 28 37 80 91 90 142 282 303 310 311 27 86 108 134 144 228 345 39 72 86 95 98 92 87 92 96 94 94 97 98 93 90 92 92 88 84 78 71 68 66 62 61 59 54 49 46 43 40 38 36 39 45 47 43 39 38 33 27 23 23 24 27 29 30 31 28 26 26 25 26 27 26 28 33 34 30 24 338 255 239 233 241
54 28 15 11 4 61 70 60 81 155 302 314 319 336 24 90 143 137 99 49 36 56 70 72 70 79 88 87 86 93 95 89 88 90 88 87 90 90 91 90 85 75 69 65 61 60 58 54 48 43 40 40 40 38 35 37 40 39 37 33 27 21 18 18 18 21 23 26 26 23 20 18 16 17 18 14 14 18 18 19 22 21 10 322 259 261
12 70 138 314 320 83 82 56 78 117 322 340 41 89 74 93 117 112 92 69 49 49 64 71 66 66 81 91 91 89 88 85 85 86 82 81 84 84 86 86 82 76 72 69 67 64 62 59 53 45 41 38 37 36 35 34 34 35 33 27 20 16 15 14 13 15 18 19 19 17 16 14 11 12 11 8 9 7 2 1 3 8 13 7 341 302
8 90 113 84 45 74 93 98 107 91 37 41 67 84 85 89 95 96 95 88 71 61 64 72 71 63 67 79 80 77 84 91 89 87 86 81 76 77 79 78 74 70 65 62 65 65 62 58 50 42 41 37 31 30 30 31 32 30 26 22 20 20 20 16 15 16 16 15 13 11 10 9 9 9 7 8 10 6 358 355 353 352 353 349 339 323
64 81 85 89 86 77 74 80 94 89 75 69 75 81 88 93 97 96 94 89 86 89 85 83 83 74 69 79 81 78 84 93 91 89 91 87 73 70 74 72 63 58 54 49 47 45 42 42 43 44 46 43 39 38 38 37 38 36 31 28 29 28 26 24 23 21 17 14 11 7 3 3 3 4 3 3 6 5 2 358 354 348 341 335 332 326
335 18 60 92 106 86 78 90 97 94 92 91 89 88 91 96 100 100 102 109 119 119 121 125 124 119 109 104 104 100 89 87 84 72 64 71 67 60 63 67 65 67 66 57 45 36 35 41 47 49 49 45 42 41 41 39 38 37 32 30 30 28 25 25 26 25 20 15 11 6 4 2 359 358 358 358 357 357 355 355 352 346 341 337 332 324
312 55 75 86 78 84 111 125 102 89 89 95 97 97 98 98 94 89 92 103 112 112 113 120 127 138 140 125 118 111 93 81 86 83 74 78 81 76 75 79 78 75 70 61 54 53 52 54 54 49 46 42 36 31 30 29 26 23 20 19 20 20 21 23 23 20 17 13 8 4 4 2 359 357 354 354 356 356 351 349 347 343 341 345 340 327
119 77 86 106 91 88 106 117 103 83 63 60 81 96 105 103 89 75 67 65 72 78 73 64 64 72 89 106 112 103 90 80 92 100 99 95 96 97 95 89 81 75 72 68 65 64 62 59 53 48 44 39 28 20 18 16 15 13 12 12 10 10 14 17 15 13 11 8 4 1 359 358 359 359 355 351 355 358 353 349 348 344 342 344 341 329
85 84 95 110 108 122 154 146 132 115 98 88 88 92 101 103 91 80 73 70 73 79 76 66 59 57 63 77 92 97 94 85 88 94 100 107 111 111 107 99 94 90 87 82 74 67 63 59 52 46 41 32 20 13 9 7 9 12 12 11 9 9 12 13 12 10 8 5 2 360 357 354 354 357 357 354 353 352 349 343 343 349 356 358 348 340
111 139 151 139 140 159 162 149 130 110 112 129 111 94 100 105 98 92 93 93 90 93 93 88 81 69 60 68 87 96 96 92 93 97 103 110 108 101 94 95 96 93 87 80 73 67 63 58 51 47 42 29 15 10 9 10 13 15 10 6 4 4 4 7 9 11 10 5 1 358 357 356 353 352 354 356 356 353 349 341 330 329 350 359 349 330